Location: B�rgermoos
(47.6500°N, 9.0667°E)
Time: 06:49:22
(UTC+00:00)

SR - Pass Details

Date: 04 August 2021
Orbit: 581 x 874 km, 66.7° (Epoch: 25 September)

Event Time Altitude Azimuth Distance (km) Brightness Sun altitude
Rises 03:00:04 0° 151° (SSE) 3,436 ? -10.0°
Reaches altitude 10° 03:04:35 10° 119° (ESE) 2,469 ? -9.4°
Maximum altitude 03:06:12 11° 103° (ESE) 2,366 ? -9.2°
Drops below altitude 10° 03:07:49 10° 86° (E) 2,436 ? -8.9°
Sets 03:12:09 0° 53° (NE) 3,307 ? -8.4°
